La Pastourelle - 28/05/2011

Course pédestre Relais


Pl Do. Nom - Surname Prénom - Name S-Cat /cat TEMPS - Time Km/h Equipier /sx inter1 inter2
1 2065 MARTRES Laurent MMAS 1 02:22:51 13,4 barbet laurent 1 00:45:37 01:37:14
2 2037 DELAGE Yannick MMAS 2 02:26:29 13,1 VIRVALEIX DIDIER 2 00:49:31 01:36:57
3 2125 LASSALE Jean-Luc MMAS 3 02:30:00 12,8 joly denis 3 00:48:14 01:41:46
4 2035 GALLIEN Thierry MMAS 4 02:31:12 12,7 FAURE STEPHANE 4 00:46:39 01:44:32
5 2030 PONS Alexis MMIX 1 02:32:39 12,6 MADRIGNAC FLORIAN 5 00:53:48 01:38:50
6 2025 HOCHARD Nicolas MMAS 5 02:34:41 12,4 BISMES DENIS 6 00:45:17 01:49:24
7 2029 LARROQUE Thierry MMAS 6 02:39:30 12,0 TARIS HERVE 7 00:51:39 01:47:51
8 2124 MERCIER Bruno MMAS 7 02:40:36 12,0 GARDES JEAN FRANCOIS 8 00:51:36 01:49:00
9 2087 SENARD Mathilde MMIX 2 02:41:15 11,9 Lassalle raphael 9 00:55:29 01:45:45
10 2092 VIARS Jean Francois MMAS 8 02:41:47 11,9 MALBO CHRISTIAN 10 01:00:07 01:41:39
11 2066 GALLOT Anne Laure MMIX 3 02:42:46 11,8 LACCASSAGNE GUILLAUME 11 01:01:37 01:41:08
12 2116 SAUTTER Christel MMIX 4 02:42:51 11,8 JEGARD REMY 12 01:00:53 01:41:57
13 2062 COURTEAU Cyrille MMAS 9 02:49:59 11,3 Bagnard Sebastien 13 00:50:59 01:58:59
14 2093 VILLIERAS Jerome MMIX 5 02:51:52 11,2 Mauzat Stephanie 14 00:56:33 01:55:19
15 2094 PEURIERE Yannick MMAS 10 02:56:30 10,9 CHALENCON EMMANUEL 15 00:50:56 02:05:34
16 2061 GRUSZKA Jacky MMAS 11 03:00:07 10,7 FOURCAUD FRANCIS 16 01:07:34 01:52:32
17 2068 BARBAT Laurent MMAS 12 03:00:54 10,6 Marone Christophe 17 01:01:36 01:59:18
18 2070 BOUDOT Laurent MMAS 13 03:01:09 10,6 DUC STEPHANE 18 01:00:16 02:00:53
19 2102 BENET Mickael MMAS 14 03:03:52 10,4 Malbet Patrice 19 00:55:53 02:07:59
20 2052 ROLLIN Jean-Dominique MMAS 15 03:04:22 10,4 JEAN ROLLIN 20 00:54:56 02:09:26
21 2064 HACHET Olivier MMAS 16 03:04:47 10,4 Mahin Laurent 21 00:51:52 02:12:55
22 2071 GILBERTAS Mickael MMAS 17 03:04:49 10,4 JACOB ERIC 22 01:04:20 02:00:29
23 2118 BREYSSE Philippe MMAS 18 03:06:57 10,3 ALBOUY Patrick 23 01:01:03 02:05:54
24 2091 POUGET Jean Claude MMAS 19 03:07:04 10,3 LAFON JEAN LOUIS 24 00:58:36 02:08:27
25 2112 BOUDOU Frederic MMAS 20 03:09:01 10,2 boudou marc 25 00:55:27 02:13:33
26 2007 MERLHIOT Yannick MMAS 21 03:09:21 10,1 MERLHIOT REMY 26 00:59:11 02:10:09
27 2090 NEVEU Thomas MMIX 6 03:11:08 10,0 Hortobagyi Borbala 27 01:13:46 01:57:22
28 2109 AURATUS Eric MMAS 22 03:11:58 10,0 AURATUS NICOLAS 28 01:05:35 02:06:23
29 2058 POZOULS Philippe MMAS 23 03:12:39 10,0 pozouls florian 29 01:00:45 02:11:54
30 2076 GRASSIN Pascal MMAS 24 03:12:45 10,0 MOUTELLE Brice 30 01:07:30 02:05:14
31 2127 LANTUEJOUL Christophe MMAS 25 03:13:07 9,9 Boudou Hervé 31 01:02:40 02:10:27
32 2067 CHATEAU Vincent MMAS 26 03:13:45 9,9 FONTENEAU GAEL 32 01:07:39 02:06:06
33 2060 MASSA Guy MMIX 7 03:13:57 9,9 MASSA MARJOLAINE 33 00:59:15 02:14:41
34 2120 SARGES Mickael MMAS 27 03:14:13 9,9 ANDRIEUX CHRISTOPHE 34 01:04:57 02:09:16
35 2078 VILLECHENON Francois MMAS 28 03:14:29 9,9 Villechenon Pierre 35 01:02:15 02:12:13
36 2108 BAUDET Patrick MMAS 29 03:14:57 9,8 morice claude 36 01:10:03 02:04:54
37 2129 LAGARD Pierre Yves MMAS 30 03:16:52 9,8 lagard luc 37 00:58:15 02:18:37
38 2083 FREYSSIGNET Pascal MMAS 31 03:16:58 9,7 POULHES PATRICE 38 01:06:44 02:10:13
39 2101 ALGALARRONDO Chantal MMIX 8 03:17:29 9,7 DARCHE PATRICK 39 00:53:12 02:24:17
40 2027 HOCHARD Jack MMAS 32 03:18:00 9,7 BOUINOT MICHEL 40 00:57:55 02:20:05
41 2100 PONS Serge MMAS 33 03:18:41 9,7 SEMETEYS JEAN-LOUIS 41 00:54:46 02:23:54
42 2126 SABY Sandra MMIX 9 03:19:09 9,6 VANOLI PHILIPPE 42 01:06:56 02:12:12
43 2057 PERISSE Clement MMAS 34 03:19:23 9,6 PERISSE PHILIPPE 43 00:58:36 02:20:47
44 2081 BOUCHARD Veronique MMIX 10 03:19:43 9,6 BOUCHARD LUC 44 01:10:12 02:09:31
45 2128 BEYSSAC Sylvie MFEM 1 03:20:14 9,6 SARDIER ANNE 45 01:01:12 02:19:02
46 2074 MONEDIERE Patrick MMAS 35 03:20:57 9,6 LIMAN HENRI 46 01:07:56 02:13:01
47 2028 CHIOSTRI Isabelle MFEM 2 03:21:23 9,5 AROTSECHE SYLVIE 47 01:00:01 02:21:22
48 2043 SAPIN Dominique MMIX 11 03:24:24 9,4 MANUEL SANDRINE 48 00:55:25 02:28:59
49 2097 LIOTARD Isabelle MMIX 12 03:24:48 9,4 dimouro marc 49 01:12:23 02:12:25
50 2123 MONDOR Joel MMAS 36 03:26:00 9,3 MONDOR ANTOINE 50 01:00:38 02:25:21
51 2084 DUMONT Jean Philippe MMIX 13 03:26:08 9,3 DUMONT SANDRINE 51 01:05:11 02:20:56
52 2038 BENGUEDDA Veronique MFEM 3 03:27:13 9,3 GRENEREAU EMMANUELLE 52 01:13:36 02:13:37
53 2031 DAIMANT Marc MMAS 37 03:29:20 9,2 HURSON CHRISTIAN 53 01:03:30 02:25:50
54 2016 CASSARO Joel MMAS 38 03:29:58 9,1 chanfreau marcel 54 01:08:13 02:21:44
55 2045 LE MERRER Beatrice MMIX 14 03:30:32 9,1 SIMON JEAN LUC 55 01:06:39 02:23:53
56 2056 PERISSE Pascal MMAS 39 03:30:41 9,1 FRANCE PASCAL 56 01:05:42 02:24:59
57 2122 VERGNE Xavier MMIX 15 03:31:03 9,1 VERGNE LAETITIA 57 00:58:26 02:32:37
58 2072 MARTANO Esther MMIX 16 03:31:35 9,1 MARIAGE CHRISTIAN 58 01:19:06 02:12:28
59 2040 RIMLINGER Eric MMAS 40 03:32:41 9,0 Bernes christian 59 01:10:20 02:22:20
60 2022 LAGORCE Andre MMAS 41 03:35:31 8,9 Feyssat stéphane 60 01:03:02 02:32:29
61 2015 JULIEN Lhospitalier MMIX 17 03:36:40 8,9 DE FRAISSINETTE Valérie 61 01:12:35 02:24:04
62 2088 HAMMERER Joel MMAS 42 03:36:41 8,9 LOUETTE Bernard 62 01:07:57 02:28:44
63 2114 BOUDOU Jacques MMIX 18 03:38:08 8,8 perret valérie 63 01:12:48 02:25:19
64 2113 COUDERC Pierre MMAS 43 03:38:09 8,8 ledouble pascal 64 01:12:46 02:25:22
65 2020 LEGER Jean Paul MMAS 44 03:38:18 8,8 PONTEGNIE FRANCIS 65 01:15:00 02:23:18
66 2008 SALIN Frederic MMIX 19 03:39:50 8,7 Mme SALIN Anne 66 01:15:07 02:24:42
67 2018 DAUDOU Laurence MMIX 20 03:42:12 8,6 DUBOIS JEAN FRANCOIS 67 01:23:16 02:18:56
68 2119 TAITHE Frederic MMIX 21 03:42:17 8,6 taithe severine 68 01:31:11 02:11:05
69 2041 MAYOT Vincent MMAS 45 03:42:18 8,6 MAYOT JEAN 69 01:16:10 02:26:07
70 2044 DELINIERE Francois MMIX 22 03:42:27 8,6 DELINIERE Anne Marie 70 01:12:24 02:30:02
71 2086 JOANNET Didier MMAS 46 03:42:29 8,6 CRANTELLE Sébastien 71 01:18:00 02:24:29
72 2032 CHASSAGNARD Marc MMIX 23 03:42:45 8,6 TARJON STEPHANIE 72 01:11:17 02:31:27
73 2003 BOYER Francois MMIX 24 03:42:49 8,6 VILLARD Raphaelle 73 01:08:04 02:34:44
74 2012 AUFAUVRE Bruno MMIX 25 03:45:13 8,5 GIMBERGUES Christine 74 01:12:34 02:32:38
75 2079 PERONNEAU David MMAS 47 03:45:32 8,5 Raynaud Michel 75 01:16:55 02:28:37
76 2082 ARSAC Jean Michel MMAS 48 03:45:33 8,5 CHABRIER SERGE 76 01:19:17 02:26:15
77 2107 ACOSTA Marie MMIX 26 03:45:33 8,5 GANDILHON Nicolas 77 01:17:02 02:28:30
78 2069 MARRAGOU Gerard MMAS 49 03:45:43 8,5 boutet francis 78 01:14:23 02:31:19
79 2075 DAUXERRE Eric MMAS 50 03:46:49 8,5 Antoine Goussard 79 01:06:43 02:40:06
80 2055 FIALON Corentin MMIX 27 03:47:03 8,5 FIALON CATHERINE 80 01:10:28 02:36:35
81 2063 LARDIC Pascale MMIX 28 03:48:48 8,4 DELMOTTE PHILIPPE 81 01:06:04 02:42:43
82 2099 LAVEISSIERE Guy MMAS 51 03:49:04 8,4 CHASSAGNE JEAN-PIERRE 82 01:07:23 02:41:41
83 2004 DUMAS Nadine MMIX 29 03:49:04 8,4 LAGOUTTE VINCENT 83 01:08:16 02:40:48
84 2021 PARADOUX Patrick MMIX 30 03:49:42 8,4 BERTHOU FLORENCE 84 01:18:32 02:31:10
85 2036 MARCHAPT Laure MMIX 31 03:52:15 8,3 TARRADE MATHIEU 85 01:13:36 02:38:38
86 2017 CHARRIERAS Sandrine MFEM 4 03:52:33 8,3 MORICHON VALERIE 86 01:18:19 02:34:13
87 2130 SABATIER Corinne MFEM 5 03:54:07 8,2 CHELTOWSKI CHRISTINE 87 01:10:43 02:43:24
88 2054 BACHOTET Julien MMAS 52 03:55:10 8,2 MONS SYLVAIN 88 01:21:00 02:34:09
89 2103 DESTANNES Martine MMIX 32 03:56:16 8,1 DOS SANTOS ALAIN 89 01:08:00 02:48:15
90 2014 BOUCOMONT Eric MMIX 33 03:56:50 8,1 Boucomont Amelie 90 01:10:32 02:46:17
91 2034 FERRAO Henri MMAS 53 03:57:05 8,1 MAISONNEUVE DOMINIQUE 91 01:15:37 02:41:27
92 2046 MOINE Luc MMAS 54 03:57:22 8,1 SEVELLEC MARTIAL 92 01:13:27 02:43:55
93 2002 DELLA - BALDA Pascal MMAS 55 03:59:43 8,0 Dunaqnd Thierry 93 01:18:39 02:41:03
94 2001 BULLAT Yves MMAS 56 03:59:44 8,0 Grimaud Alain 94 01:18:40 02:41:03
95 2104 CHAPPE Marie MMIX 34 03:59:54 8,0 MAFFEIS EMILIEN 95 01:23:55 02:35:59
96 2095 CHASSAGNOL Julien MMAS 57 04:00:37 8,0 BLUME-Justin 96 01:16:49 02:43:48
97 2073 VIDAL Yves MMAS 58 04:01:51 7,9 vidal alexandre 97 01:07:25 02:54:26
98 2024 CAILLOU Daniel MMAS 59 04:02:49 7,9 CAILLOU CYRIL 98 01:03:13 02:59:35
99 2089 FELGINES Christian MMAS 60 04:04:38 7,8 GROSSANS jean-claude 99 01:12:58 02:51:39
100 2042 DUGOUR Veronique MMIX 35 04:04:39 7,8 DUGOUR PHILIPPE 100 01:20:42 02:43:57
101 2023 SCHWAB Nathalie MMIX 36 04:04:44 7,8 TROUDE Jean-Michel 101 01:20:03 02:44:40
102 2105 CHARLOT Cyril MMIX 37 04:05:24 7,8 CHARLOT Marie-France 102 01:09:33 02:55:50
103 2009 VAZ Benoit MMIX 38 04:05:44 7,8 VAZ VERONIQUE 103 01:12:35 02:53:09
104 2013 VAZ Francois-Andre MMIX 39 04:05:45 7,8 Vaz Marie-Aude 104 01:18:59 02:46:46
105 2085 CRANTELLE Marc MMAS 61 04:06:25 7,8 MIZOULE Jean-Louis 105 01:15:37 02:50:47
106 2039 BERBESSOU Michel MMIX 40 04:07:53 7,7 Berbessou Sylviane 106 01:15:00 02:52:52
107 2010 GAYARD Sandrine MFEM 6 04:09:15 7,7 Simand Agnès 107 01:18:35 02:50:40
108 2053 BABY Corinne MFEM 7 04:15:06 7,5 Josée CORNELISSEN 108 01:13:32 03:01:33
109 2077 BARRAUD Patrick MMIX 41 04:19:58 7,4 COQUIL LILIANE 109 01:16:29 03:03:28
110 2121 HUNGARY Peter Mikula MMAS 62 04:21:45 7,3 TARTAUD-GINESTE CEDRIC 110 01:24:35 02:57:09
111 2111 PATENET Olivier MMAS 63 04:27:08 7,2 PELLETIER Patrick 111 01:28:48 02:58:19
112 2033 TARJON Patrick MMAS 64 04:27:54 7,2 LECLERCQ PHILIPPE 112 01:15:52 03:12:02
113 2006 DE BORTOLI Franck MMIX 42 04:40:11 6,9 BAUDOUIN PATRICIA 113 01:20:50 03:19:21
114 2117 NONON Thierry MMAS 65 04:44:29 6,7 GRIFFOUILLERE RICHARD 114 01:37:41 03:06:48
115 2047 DEL GIUDICE Michel MMAS 66 04:50:45 6,6 SORS DANIEL 115 01:33:13 03:17:31
116 2080 LANIRAY Nathalie MFEM 8 05:04:40 6,3 turlier isabelle 116 01:21:21 03:43:18
117 2026 DARME Patrick MMAS 0 00:00:00 ABD HOCHARD ALEXANDRE Abd 00:59:44 23:00:15